Time,TemperatureF,DewpointF,PressureIn,WindDirection,WindDirectionDegrees,WindSpeedMPH,WindSpeedGustMPH,Humidity,HourlyPrecipIn,Conditions,Clouds,dailyrainin,SoftwareType,DateUTC
2013-02-21 00:12:00,28.2,18.0,29.63,WSW,242,8.0,14.0,67,0.00,,,0.00,weatherlink.com 1.10,2013-02-21 05:12:00,
2013-02-21 00:27:00,28.1,18.0,29.63,West,260,10.0,16.0,66,0.00,,,0.00,weatherlink.com 1.10,2013-02-21 05:27:00,
2013-02-21 00:42:00,28.2,17.0,29.64,WSW,253,12.0,21.0,64,0.00,,,0.00,weatherlink.com 1.10,2013-02-21 05:42:00,
2013-02-21 00:57:00,28.1,17.0,29.64,West,279,11.0,15.0,64,0.00,,,0.00,weatherlink.com 1.10,2013-02-21 05:57:00,
2013-02-21 01:12:00,28.1,17.0,29.64,SW,234,8.0,18.0,63,0.00,,,0.00,weatherlink.com 1.10,2013-02-21 06:12:00,
2013-02-21 01:27:00,28.0,17.0,29.65,West,264,9.0,15.0,63,0.00,,,0.00,weatherlink.com 1.10,2013-02-21 06:27:00,
2013-02-21 01:43:00,28.0,17.0,29.65,WNW,286,9.0,18.0,63,0.00,,,0.00,weatherlink.com 1.10,2013-02-21 06:43:00,
2013-02-21 01:58:00,27.9,16.0,29.64,West,269,8.0,19.0,62,0.00,,,0.00,weatherlink.com 1.10,2013-02-21 06:58:00,
2013-02-21 02:13:00,27.7,16.0,29.65,WNW,284,16.0,19.0,63,0.00,,,0.00,weatherlink.com 1.10,2013-02-21 07:13:00,
2013-02-21 02:28:00,27.7,16.0,29.65,West,271,7.0,15.0,62,0.00,,,0.00,weatherlink.com 1.10,2013-02-21 07:28:00,
2013-02-21 02:43:00,27.3,16.0,29.65,West,265,5.0,9.0,63,0.00,,,0.00,weatherlink.com 1.10,2013-02-21 07:43:00,
2013-02-21 02:58:00,26.9,16.0,29.66,WSW,245,5.0,10.0,64,0.00,,,0.00,weatherlink.com 1.10,2013-02-21 07:58:00,
2013-02-21 03:13:00,26.4,16.0,29.66,WSW,257,4.0,7.0,66,0.00,,,0.00,weatherlink.com 1.10,2013-02-21 08:13:00,
2013-02-21 03:28:00,26.2,16.0,29.66,West,279,6.0,9.0,66,0.00,,,0.00,weatherlink.com 1.10,2013-02-21 08:28:00,
2013-02-21 03:43:00,26.1,16.0,29.66,West,274,10.0,11.0,67,0.00,,,0.00,weatherlink.com 1.10,2013-02-21 08:43:00,
2013-02-21 03:58:00,26.1,16.0,29.66,NW,306,6.0,12.0,67,0.00,,,0.00,weatherlink.com 1.10,2013-02-21 08:58:00,
2013-02-21 04:13:00,26.0,16.0,29.66,West,281,9.0,14.0,66,0.00,,,0.00,weatherlink.com 1.10,2013-02-21 09:13:00,
2013-02-21 04:28:00,25.7,16.0,29.66,West,264,11.0,13.0,66,0.00,,,0.00,weatherlink.com 1.10,2013-02-21 09:28:00,
2013-02-21 04:43:00,25.5,15.0,29.67,West,261,5.0,15.0,64,0.00,,,0.00,weatherlink.com 1.10,2013-02-21 09:43:00,
2013-02-21 04:58:00,25.3,14.0,29.68,West,274,5.0,12.0,63,0.00,,,0.00,weatherlink.com 1.10,2013-02-21 09:58:00,
2013-02-21 05:13:00,25.0,14.0,29.68,West,275,6.0,15.0,63,0.00,,,0.00,weatherlink.com 1.10,2013-02-21 10:13:00,
2013-02-21 05:28:00,24.6,14.0,29.69,WNW,284,5.0,12.0,63,0.00,,,0.00,weatherlink.com 1.10,2013-02-21 10:28:00,
2013-02-21 05:43:00,24.3,13.0,29.69,SW,233,6.0,10.0,63,0.00,,,0.00,weatherlink.com 1.10,2013-02-21 10:43:00,
2013-02-21 05:58:00,24.0,13.0,29.70,West,276,6.0,11.0,64,0.00,,,0.00,weatherlink.com 1.10,2013-02-21 10:58:00,
2013-02-21 06:13:00,23.7,13.0,29.70,West,271,9.0,16.0,63,0.00,,,0.00,weatherlink.com 1.10,2013-02-21 11:13:00,
2013-02-21 06:28:00,23.5,13.0,29.71,West,280,10.0,18.0,63,0.00,,,0.00,weatherlink.com 1.10,2013-02-21 11:28:00,
2013-02-21 06:43:00,23.3,12.0,29.72,West,273,7.0,13.0,63,0.00,,,0.00,weatherlink.com 1.10,2013-02-21 11:43:00,
2013-02-21 06:58:00,23.1,12.0,29.73,WNW,284,10.0,18.0,63,0.00,,,0.00,weatherlink.com 1.10,2013-02-21 11:58:00,
2013-02-21 07:13:00,23.5,12.0,29.73,West,271,8.0,18.0,62,0.00,,,0.00,weatherlink.com 1.10,2013-02-21 12:13:00,
2013-02-21 07:28:00,23.5,12.0,29.74,West,260,11.0,22.0,62,0.00,,,0.00,weatherlink.com 1.10,2013-02-21 12:28:00,
2013-02-21 07:43:00,23.6,12.0,29.74,WNW,283,7.0,14.0,62,0.00,,,0.00,weatherlink.com 1.10,2013-02-21 12:43:00,
2013-02-21 07:58:00,23.9,12.0,29.74,West,269,7.0,15.0,62,0.00,,,0.00,weatherlink.com 1.10,2013-02-21 12:58:00,
2013-02-21 08:13:00,24.2,12.0,29.74,WNW,294,9.0,13.0,60,0.00,,,0.00,weatherlink.com 1.10,2013-02-21 13:13:00,
2013-02-21 08:28:00,24.0,12.0,29.75,WSW,251,6.0,19.0,60,0.00,,,0.00,weatherlink.com 1.10,2013-02-21 13:28:00,
2013-02-21 08:43:00,24.1,11.0,29.74,NW,311,6.0,18.0,58,0.00,,,0.00,weatherlink.com 1.10,2013-02-21 13:43:00,
2013-02-21 08:59:00,24.1,11.0,29.74,WNW,296,11.0,16.0,58,0.00,,,0.00,weatherlink.com 1.10,2013-02-21 13:59:00,
2013-02-21 09:14:00,24.3,11.0,29.75,West,277,9.0,20.0,57,0.00,,,0.00,weatherlink.com 1.10,2013-02-21 14:14:00,
2013-02-21 09:29:00,25.1,12.0,29.75,WNW,286,7.0,13.0,58,0.00,,,0.00,weatherlink.com 1.10,2013-02-21 14:29:00,
2013-02-21 09:44:00,24.9,11.0,29.75,WNW,288,12.0,21.0,56,0.00,,,0.00,weatherlink.com 1.10,2013-02-21 14:44:00,
2013-02-21 09:59:00,25.3,11.0,29.75,WNW,294,10.0,21.0,56,0.00,,,0.00,weatherlink.com 1.10,2013-02-21 14:59:00,
2013-02-21 10:14:00,26.2,12.0,29.75,WNW,290,5.0,19.0,56,0.00,,,0.00,weatherlink.com 1.10,2013-02-21 15:14:00,
2013-02-21 10:29:00,26.3,12.0,29.75,WNW,296,10.0,21.0,55,0.00,,,0.00,weatherlink.com 1.10,2013-02-21 15:29:00,
2013-02-21 10:44:00,27.0,13.0,29.74,NW,313,13.0,22.0,55,0.00,,,0.00,weatherlink.com 1.10,2013-02-21 15:44:00,
2013-02-21 10:59:00,26.6,12.0,29.74,WNW,291,8.0,22.0,55,0.00,,,0.00,weatherlink.com 1.10,2013-02-21 15:59:00,
2013-02-21 11:14:00,25.5,12.0,29.74,WNW,300,14.0,23.0,57,0.00,,,0.00,weatherlink.com 1.10,2013-02-21 16:14:00,
2013-02-21 11:29:00,25.4,13.0,29.75,West,281,13.0,23.0,59,0.00,,,0.00,weatherlink.com 1.10,2013-02-21 16:29:00,
2013-02-21 11:44:00,25.6,13.0,29.75,WNW,299,10.0,19.0,60,0.00,,,0.00,weatherlink.com 1.10,2013-02-21 16:44:00,
2013-02-21 11:59:00,27.0,14.0,29.75,NW,307,19.0,21.0,59,0.00,,,0.00,weatherlink.com 1.10,2013-02-21 16:59:00,
2013-02-21 12:14:00,26.5,14.0,29.75,West,279,7.0,25.0,59,0.00,,,0.00,weatherlink.com 1.10,2013-02-21 17:14:00,
2013-02-21 12:29:00,26.6,14.0,29.75,West,267,15.0,21.0,59,0.00,,,0.00,weatherlink.com 1.10,2013-02-21 17:29:00,
2013-02-21 12:44:00,27.0,16.0,29.75,WNW,296,19.0,26.0,63,0.00,,,0.00,weatherlink.com 1.10,2013-02-21 17:44:00,
2013-02-21 12:59:00,27.7,17.0,29.75,NW,309,8.0,20.0,65,0.00,,,0.00,weatherlink.com 1.10,2013-02-21 17:59:00,
2013-02-21 13:14:00,27.8,18.0,29.75,West,276,14.0,20.0,67,0.00,,,0.00,weatherlink.com 1.10,2013-02-21 18:14:00,
2013-02-21 13:29:00,27.2,18.0,29.75,WNW,290,16.0,26.0,69,0.00,,,0.00,weatherlink.com 1.10,2013-02-21 18:29:00,
2013-02-21 13:44:00,26.8,18.0,29.75,WNW,288,12.0,24.0,69,0.00,,,0.00,weatherlink.com 1.10,2013-02-21 18:44:00,
2013-02-21 13:59:00,26.9,18.0,29.76,WNW,288,13.0,24.0,70,0.00,,,0.00,weatherlink.com 1.10,2013-02-21 18:59:00,
2013-02-21 14:14:00,26.7,19.0,29.77,West,263,10.0,26.0,73,0.00,,,0.00,weatherlink.com 1.10,2013-02-21 19:14:00,
2013-02-21 14:29:00,26.7,19.0,29.77,WNW,288,10.0,23.0,74,0.00,,,0.00,weatherlink.com 1.10,2013-02-21 19:29:00,
2013-02-21 14:44:00,26.6,20.0,29.77,WNW,296,18.0,26.0,77,0.00,,,0.00,weatherlink.com 1.10,2013-02-21 19:44:00,
2013-02-21 14:59:00,26.3,21.0,29.78,WNW,288,13.0,22.0,79,0.00,,,0.00,weatherlink.com 1.10,2013-02-21 19:59:00,
2013-02-21 15:14:00,26.0,21.0,29.79,West,267,10.0,26.0,82,0.00,,,0.00,weatherlink.com 1.10,2013-02-21 20:14:00,
2013-02-21 15:29:00,26.0,22.0,29.79,WNW,291,12.0,26.0,83,0.00,,,0.00,weatherlink.com 1.10,2013-02-21 20:29:00,
2013-02-21 15:44:00,26.0,22.0,29.80,WNW,288,14.0,24.0,85,0.00,,,0.00,weatherlink.com 1.10,2013-02-21 20:44:00,
2013-02-21 15:59:00,26.6,21.0,29.80,WNW,294,11.0,25.0,80,0.00,,,0.00,weatherlink.com 1.10,2013-02-21 20:59:00,
2013-02-21 16:14:00,27.1,21.0,29.81,WNW,303,10.0,23.0,79,0.00,,,0.00,weatherlink.com 1.10,2013-02-21 21:14:00,
2013-02-21 16:29:00,27.4,21.0,29.82,WNW,291,11.0,25.0,78,0.00,,,0.00,weatherlink.com 1.10,2013-02-21 21:29:00,
2013-02-21 16:44:00,27.5,22.0,29.82,WNW,286,10.0,24.0,78,0.00,,,0.00,weatherlink.com 1.10,2013-02-21 21:44:00,
2013-02-21 16:59:00,27.8,21.0,29.84,WNW,291,18.0,24.0,77,0.00,,,0.00,weatherlink.com 1.10,2013-02-21 21:59:00,
2013-02-21 17:14:00,28.1,22.0,29.85,WNW,291,19.0,25.0,77,0.00,,,0.00,weatherlink.com 1.10,2013-02-21 22:14:00,
2013-02-21 17:44:00,28.8,22.0,29.86,WNW,294,11.0,24.0,76,0.00,,,0.00,weatherlink.com 1.10,2013-02-21 22:44:00,
2013-02-21 17:59:00,29.2,23.0,29.87,West,261,16.0,27.0,76,0.00,,,0.00,weatherlink.com 1.10,2013-02-21 22:59:00,
2013-02-21 18:14:00,29.6,23.0,29.89,WNW,296,14.0,22.0,76,0.00,,,0.00,weatherlink.com 1.10,2013-02-21 23:14:00,
2013-02-21 18:29:00,29.8,23.0,29.89,NNW,329,13.0,22.0,76,0.00,,,0.00,weatherlink.com 1.10,2013-02-21 23:29:00,
2013-02-21 18:45:00,30.2,24.0,29.91,NW,309,18.0,26.0,76,0.00,,,0.00,weatherlink.com 1.10,2013-02-21 23:45:00,
2013-02-21 19:00:00,30.5,24.0,29.92,WNW,300,13.0,26.0,77,0.00,,,0.00,weatherlink.com 1.10,2013-02-22 00:00:00,
2013-02-21 19:15:00,30.5,24.0,29.94,West,279,14.0,23.0,77,0.00,,,0.00,weatherlink.com 1.10,2013-02-22 00:15:00,
2013-02-21 19:30:00,30.6,24.0,29.95,WNW,294,6.0,18.0,77,0.00,,,0.00,weatherlink.com 1.10,2013-02-22 00:30:00,
2013-02-21 19:45:00,30.7,24.0,29.96,WNW,294,13.0,23.0,77,0.00,,,0.00,weatherlink.com 1.10,2013-02-22 00:45:00,
2013-02-21 20:00:00,30.9,25.0,29.98,WNW,291,15.0,23.0,78,0.00,,,0.00,weatherlink.com 1.10,2013-02-22 01:00:00,
2013-02-21 20:15:00,31.1,25.0,29.98,WNW,286,9.0,24.0,79,0.00,,,0.00,weatherlink.com 1.10,2013-02-22 01:15:00,
2013-02-21 20:30:00,31.3,26.0,30.00,WNW,296,9.0,26.0,79,0.00,,,0.00,weatherlink.com 1.10,2013-02-22 01:30:00,
2013-02-21 20:45:00,31.6,26.0,30.01,WNW,296,11.0,20.0,79,0.00,,,0.00,weatherlink.com 1.10,2013-02-22 01:45:00,
2013-02-21 21:00:00,31.9,26.0,30.02,WNW,302,15.0,24.0,79,0.00,,,0.00,weatherlink.com 1.10,2013-02-22 02:00:00,
2013-02-21 21:15:00,32.0,26.0,30.03,WNW,294,19.0,23.0,79,0.00,,,0.00,weatherlink.com 1.10,2013-02-22 02:15:00,
2013-02-21 21:30:00,32.0,27.0,30.04,WNW,284,8.0,20.0,80,0.00,,,0.00,weatherlink.com 1.10,2013-02-22 02:30:00,
2013-02-21 21:45:00,32.1,26.0,30.05,West,276,14.0,23.0,79,0.00,,,0.00,weatherlink.com 1.10,2013-02-22 02:45:00,
2013-02-21 22:00:00,32.3,26.0,30.06,NW,317,10.0,22.0,79,0.00,,,0.00,weatherlink.com 1.10,2013-02-22 03:00:00,
2013-02-21 22:15:00,32.3,27.0,30.07,WNW,300,11.0,16.0,80,0.00,,,0.00,weatherlink.com 1.10,2013-02-22 03:15:00,
2013-02-21 22:30:00,32.5,27.0,30.07,WNW,290,12.0,24.0,79,0.00,,,0.00,weatherlink.com 1.10,2013-02-22 03:30:00,
2013-02-21 22:45:00,32.9,27.0,30.08,NW,307,8.0,20.0,79,0.00,,,0.00,weatherlink.com 1.10,2013-02-22 03:45:00,
2013-02-21 23:15:00,34.0,27.0,30.08,NW,313,10.0,21.0,74,0.00,,,0.00,weatherlink.com 1.10,2013-02-22 04:15:00,
2013-02-21 23:30:00,34.1,26.0,30.10,NNE,32,8.0,22.0,73,0.00,,,0.00,weatherlink.com 1.10,2013-02-22 04:30:00,
2013-02-21 23:45:00,34.3,26.0,30.11,West,279,11.0,22.0,71,0.00,,,0.00,weatherlink.com 1.10,2013-02-22 04:45:00,